Flag for Italy Weather past 2 weeks in Modena, Italy

Now
34 °F

Snow flurries. Fog.


Feels Like: 25 °F
Forecast: 31 / 38 °F
Wind: 12 mph from West

Location: Bologna / Borgo Panigale

Current Time: Dec 27, 2014 at 11:53:00 PM

Latest Report: Dec 27, 2014 at 11:20 PM


Visibility: 2 mi

Pressure: 29.56 "Hg

Humidity: 100%

Dew point: 34 °F

Location of ModenaLocation

Historic Weather in Modena — Graph

°F

Modena temperature yesterday

Maximum temperature yesterday: 48 °F (at 1:50 PM)
Minimum temperature yesterday: 36 °F (at 10:50 PM)
Average temperature yesterday: 41 °F

Past Weeks' High & Low Weather Summary

 TemperatureHumidityPressure
High54 °F (Dec 17, 11:50 AM)100% (Dec 13, 1:20 AM)30.48 "Hg (Dec 13, 1:20 AM)
Low25 °F (Dec 27, 7:20 AM)50% (Dec 27, 12:20 PM)29.56 "Hg (Dec 27, 5:20 PM)
Average42 °F95%30.17 "Hg
* Reported Dec 12 10:20 PM — Dec 27 10:20 PM, Modena, Weather by CustomWeather, © 2014

Note: Actual official high and low records may vary slightly from our data, if they occured in-between our weather recording intervals... More about our weather records

Advertising

Modena weather history for previous 24 hours

 ConditionsComfort  
Time TempWeatherWind HumidityBarometerVisibility
10:20 PM
Dec 27
34 °FLight snow. Fog.14 mph93%29.56 "Hg1 mi
9:50 PM34 °FLight snow. Fog.15 mph93%29.56 "Hg1 mi
9:20 PM34 °FLight snow. Fog.15 mph93%29.56 "Hg1 mi
8:50 PM34 °FFog.15 mph93%29.56 "Hg3 mi
8:20 PM34 °FPassing clouds.17 mph93%29.56 "Hg4 mi
7:50 PM34 °FPassing clouds.16 mph93%29.56 "Hg4 mi
7:20 PM34 °FLight snow. Fog.21 mph93%29.56 "Hg2 mi
6:50 PM34 °FLight snow. Fog.16 mph93%29.56 "Hg1 mi
6:20 PM34 °FLight snow. Fog.17 mph93%29.56 "Hg1 mi
5:50 PM32 °FLight snow. Ice fog.14 mph100%29.56 "Hg1 mi
5:20 PM34 °FLight snow. Fog.3 mph93%29.56 "Hg1 mi
4:50 PM32 °FSnow. Ice fog.12 mph100%29.59 "Hg1 mi
4:20 PM32 °FSnow. Ice fog.9 mph100%29.59 "Hg1 mi
3:50 PM34 °FRain. Fog.7 mph93%29.59 "Hg1 mi
3:20 PM34 °FLight rain. Partly sunny.8 mph100%29.59 "Hg4 mi
2:50 PM37 °FPartly sunny.7 mph81%29.62 "HgN/A
2:20 PM43 °FScattered clouds.18 mph71%29.65 "HgN/A
1:50 PM45 °FScattered clouds.14 mph61%29.68 "HgN/A
1:20 PM46 °FScattered clouds.14 mph53%29.71 "HgN/A
12:50 PM46 °FScattered clouds.14 mph50%29.71 "HgN/A
12:20 PM46 °FScattered clouds.13 mph50%29.77 "HgN/A
11:50 AM46 °FScattered clouds.12 mph53%29.80 "HgN/A
11:20 AM45 °FScattered clouds.8 mph57%29.83 "HgN/A
10:50 AM36 °FScattered clouds.9 mph93%29.86 "HgN/A
10:20 AM32 °FScattered clouds.7 mph100%29.89 "HgN/A
9:50 AM30 °FScattered clouds.5 mph100%29.92 "HgN/A
9:20 AM28 °FScattered clouds.3 mph100%29.95 "HgN/A
8:50 AM28 °FScattered clouds.5 mph100%29.98 "HgN/A
8:20 AM27 °FPassing clouds.3 mph100%30.01 "HgN/A
7:50 AM25 °FPassing clouds.3 mph100%30.01 "HgN/A
7:20 AM25 °FClear.3 mph100%30.04 "Hg10 mi
6:50 AM27 °FPassing clouds.3 mph100%30.04 "HgN/A
6:20 AM32 °FClear.9 mph80%30.07 "Hg10 mi
5:50 AM27 °FClear.6 mph100%30.07 "Hg10 mi
5:20 AM27 °FPassing clouds.3 mph100%30.09 "HgN/A
4:20 AM27 °FClear.1 mph100%30.12 "Hg4 mi
3:50 AM27 °FIce fog.5 mph100%30.12 "Hg2 mi
3:20 AM30 °FPassing clouds.5 mph100%30.15 "HgN/A
2:50 AM30 °FClear.6 mph93%30.12 "Hg10 mi
2:20 AM36 °FClear.8 mph75%30.12 "Hg10 mi
1:50 AM36 °FClear.1 mph75%30.12 "Hg10 mi
12:50 AM36 °FClear.7 mph81%30.15 "Hg10 mi
12:20 AM36 °FClear.7 mph81%30.15 "Hg10 mi
11:50 PM
Dec 26
36 °FClear.7 mph81%30.18 "Hg10 mi
11:20 PM36 °FClear.7 mph87%30.18 "Hg10 mi
Weather by CustomWeather, © 2014

See weather overviewHow to use our weather pages